TimeEST,TemperatureF,Dew PointF,Humidity,Sea Level PressureIn,VisibilityMPH,Wind Direction,Wind SpeedMPH,Gust SpeedMPH,PrecipitationIn,Events,Conditions,WindDirDegrees,DateUTC
12:53 AM,28.9,21.9,75,30.09,9.0,NNW,5.8,-,0.00,Snow,Light Snow,340,2013-03-03 05:53:00
1:45 AM,28.4,23.0,80,30.06,9.0,NNW,6.9,-,0.00,,Overcast,340,2013-03-03 06:45:00
1:53 AM,28.9,23.0,78,30.09,10.0,NNW,8.1,-,0.00,,Overcast,330,2013-03-03 06:53:00
2:37 AM,28.4,21.2,74,30.06,9.0,NW,11.5,-,0.00,Snow,Light Snow,320,2013-03-03 07:37:00
2:53 AM,28.0,21.9,78,30.09,6.0,NW,10.4,-,0.00,Snow,Light Snow,320,2013-03-03 07:53:00
3:53 AM,28.0,21.0,75,30.07,10.0,NW,11.5,-,0.00,,Overcast,320,2013-03-03 08:53:00
4:53 AM,27.0,19.0,72,30.07,9.0,NW,13.8,-,0.00,Snow,Light Snow,310,2013-03-03 09:53:00
5:53 AM,27.0,18.0,69,30.08,9.0,NW,11.5,-,0.00,,Overcast,310,2013-03-03 10:53:00
6:53 AM,27.0,19.0,72,30.09,9.0,NW,9.2,-,0.00,,Overcast,310,2013-03-03 11:53:00
7:53 AM,27.0,19.9,75,30.09,8.0,NW,8.1,-,0.00,Snow,Light Snow,310,2013-03-03 12:53:00
8:53 AM,28.0,19.9,72,30.10,10.0,NW,12.7,-,0.00,,Overcast,310,2013-03-03 13:53:00
9:53 AM,30.0,19.9,66,30.11,10.0,NW,12.7,-,N/A,,Overcast,310,2013-03-03 14:53:00
10:53 AM,30.9,19.0,61,30.11,10.0,WNW,10.4,-,N/A,,Overcast,300,2013-03-03 15:53:00
11:53 AM,30.9,19.0,61,30.10,10.0,NW,12.7,16.1,N/A,,Mostly Cloudy,310,2013-03-03 16:53:00
12:53 PM,33.1,18.0,54,30.09,10.0,NNW,9.2,-,N/A,,Overcast,330,2013-03-03 17:53:00
1:53 PM,33.1,18.0,54,30.07,10.0,WNW,9.2,-,N/A,,Overcast,300,2013-03-03 18:53:00
2:53 PM,33.1,18.0,54,30.06,10.0,NW,9.2,-,N/A,,Overcast,310,2013-03-03 19:53:00
3:53 PM,33.1,18.0,54,30.06,10.0,NNW,6.9,-,N/A,,Overcast,330,2013-03-03 20:53:00
4:53 PM,33.1,17.1,52,30.06,10.0,NW,8.1,-,N/A,,Overcast,310,2013-03-03 21:53:00
5:53 PM,33.1,18.0,54,30.07,10.0,NW,6.9,-,N/A,,Overcast,320,2013-03-03 22:53:00
6:53 PM,30.9,19.0,61,30.07,10.0,NW,5.8,-,N/A,,Mostly Cloudy,310,2013-03-03 23:53:00
7:53 PM,28.9,19.0,67,30.09,10.0,Calm,Calm,-,N/A,,Clear,0,2013-03-04 00:53:00
8:53 PM,28.0,17.1,63,30.08,10.0,Calm,Calm,-,N/A,,Clear,0,2013-03-04 01:53:00
9:53 PM,26.1,17.1,69,30.09,10.0,Calm,Calm,-,N/A,,Clear,0,2013-03-04 02:53:00
10:53 PM,26.1,19.9,78,30.09,10.0,Calm,Calm,-,N/A,,Clear,0,2013-03-04 03:53:00
11:53 PM,26.1,21.0,81,30.10,10.0,Calm,Calm,-,N/A,,Clear,0,2013-03-04 04:53:00